Time,TemperatureF,DewpointF,PressureIn,WindDirection,WindDirectionDegrees,WindSpeedMPH,WindSpeedGustMPH,Humidity,HourlyPrecipIn,Conditions,Clouds,dailyrainin,SoftwareType,DateUTC
2013-04-07 10:02:00,46.0,39.0,29.19,SE,134,6.0,14.0,76,0.00,,,0.00,,2013-04-07 14:02:00,
2013-04-07 10:12:00,46.0,39.0,29.19,SE,134,6.0,14.0,76,0.00,,,0.00,,2013-04-07 14:12:00,
2013-04-07 10:23:00,47.0,39.0,29.39,SSE,160,4.0,13.0,73,0.00,,,0.00,,2013-04-07 14:23:00,
2013-04-07 10:33:00,48.0,39.0,29.45,South,177,2.0,10.0,72,0.00,,,0.00,,2013-04-07 14:33:00,
2013-04-07 10:43:00,48.0,39.0,29.45,South,177,2.0,10.0,72,0.00,,,0.00,,2013-04-07 14:43:00,
2013-04-07 10:54:00,49.0,38.0,29.45,SE,139,4.0,14.0,66,0.00,,,0.00,,2013-04-07 14:54:00,
2013-04-07 11:03:00,50.0,39.0,29.46,SSE,154,6.0,12.0,65,0.00,,,0.00,,2013-04-07 15:03:00,
2013-04-07 11:13:00,52.0,39.0,29.31,SE,138,2.0,7.0,62,0.00,,,0.00,,2013-04-07 15:13:00,
2013-04-07 11:22:00,52.0,39.0,29.31,SE,138,2.0,7.0,62,0.00,,,0.00,,2013-04-07 15:22:00,
2013-04-07 11:35:00,52.0,40.0,29.31,SE,135,4.0,10.0,63,0.00,,,0.00,,2013-04-07 15:35:00,
2013-04-07 11:45:00,52.0,40.0,29.31,SE,135,4.0,10.0,63,0.00,,,0.00,,2013-04-07 15:45:00,
2013-04-07 11:55:00,54.0,40.0,29.47,SE,143,3.0,11.0,59,0.00,,,0.00,,2013-04-07 15:55:00,
2013-04-07 12:04:00,55.0,41.0,29.47,SSE,160,3.0,8.0,59,0.00,,,0.00,,2013-04-07 16:04:00,
2013-04-07 12:14:00,55.0,41.0,29.47,SSE,160,3.0,8.0,59,0.00,,,0.00,,2013-04-07 16:14:00,
2013-04-07 12:25:00,55.0,41.0,29.47,SSE,157,4.0,15.0,58,0.00,,,0.00,,2013-04-07 16:25:00,
2013-04-07 12:33:00,55.0,41.0,29.47,SSE,157,4.0,15.0,58,0.00,,,0.00,,2013-04-07 16:33:00,
2013-04-07 12:43:00,55.0,41.0,29.47,SSE,157,4.0,15.0,58,0.00,,,0.00,,2013-04-07 16:43:00,
2013-04-07 12:54:00,56.0,40.0,29.47,SSE,161,7.0,13.0,55,0.00,,,0.00,,2013-04-07 16:54:00,
2013-04-07 13:04:00,57.0,41.0,29.61,ESE,110,4.0,11.0,56,0.00,,,0.00,,2013-04-07 17:04:00,
2013-04-07 13:13:00,57.0,41.0,29.61,ESE,110,4.0,11.0,56,0.00,,,0.00,,2013-04-07 17:13:00,
2013-04-07 13:23:00,59.0,44.0,29.64,North,0,0.0,7.0,58,0.00,,,0.00,,2013-04-07 17:23:00,
2013-04-07 13:33:00,59.0,43.0,29.54,SSE,157,6.0,14.0,55,0.00,,,0.00,,2013-04-07 17:33:00,
2013-04-07 13:43:00,59.0,43.0,29.54,SSE,157,6.0,14.0,55,0.00,,,0.00,,2013-04-07 17:43:00,
2013-04-07 13:54:00,60.0,43.0,29.47,SE,132,2.0,10.0,54,0.00,,,0.00,,2013-04-07 17:54:00,
2013-04-07 14:02:00,60.0,43.0,29.47,SSE,147,6.0,11.0,53,0.00,,,0.00,,2013-04-07 18:02:00,
2013-04-07 14:13:00,60.0,43.0,29.47,SSE,147,6.0,11.0,53,0.00,,,0.00,,2013-04-07 18:13:00,
2013-04-07 14:23:00,60.0,44.0,29.59,SE,125,1.0,14.0,55,0.00,,,0.00,,2013-04-07 18:23:00,
2013-04-07 14:33:00,61.0,43.0,29.44,SE,129,5.0,13.0,52,0.00,,,0.00,,2013-04-07 18:33:00,
2013-04-07 14:43:00,61.0,43.0,29.44,SE,129,5.0,13.0,52,0.00,,,0.00,,2013-04-07 18:43:00,
2013-04-07 14:53:00,61.0,43.0,29.49,SE,129,5.0,9.0,51,0.00,,,0.00,,2013-04-07 18:53:00,
2013-04-07 15:03:00,61.0,43.0,29.36,SSE,154,6.0,14.0,52,0.00,,,0.00,,2013-04-07 19:03:00,
2013-04-07 15:12:00,61.0,43.0,29.36,SSE,154,6.0,14.0,52,0.00,,,0.00,,2013-04-07 19:12:00,
2013-04-07 15:22:00,61.0,42.0,29.49,SSE,157,4.0,15.0,50,0.00,,,0.00,,2013-04-07 19:22:00,
2013-04-07 15:33:00,62.0,44.0,29.52,SSE,154,4.0,10.0,52,0.00,,,0.00,,2013-04-07 19:33:00,
2013-04-07 15:42:00,62.0,44.0,29.52,SSE,154,4.0,10.0,52,0.00,,,0.00,,2013-04-07 19:42:00,
2013-04-07 15:53:00,62.0,44.0,29.52,SSE,154,4.0,10.0,52,0.00,,,0.00,,2013-04-07 19:53:00,
2013-04-07 16:03:00,62.0,44.0,29.54,SE,127,6.0,13.0,52,0.00,,,0.00,,2013-04-07 20:03:00,
2013-04-07 16:13:00,62.0,44.0,29.54,SE,127,6.0,13.0,52,0.00,,,0.00,,2013-04-07 20:13:00,
2013-04-07 16:23:00,62.0,44.0,29.54,SE,127,6.0,13.0,52,0.00,,,0.00,,2013-04-07 20:23:00,
2013-04-07 16:33:00,61.0,44.0,29.51,SSE,165,5.0,12.0,53,0.00,,,0.00,,2013-04-07 20:33:00,
2013-04-07 16:43:00,61.0,44.0,29.51,SSE,165,5.0,12.0,53,0.00,,,0.00,,2013-04-07 20:43:00,
2013-04-07 16:55:00,61.0,44.0,29.41,South,177,1.0,12.0,53,0.00,,,0.00,,2013-04-07 20:55:00,
2013-04-07 17:04:00,62.0,45.0,29.37,SSE,149,4.0,12.0,53,0.00,,,0.00,,2013-04-07 21:04:00,
2013-04-07 17:13:00,62.0,45.0,29.37,SSE,149,4.0,12.0,53,0.00,,,0.00,,2013-04-07 21:13:00,
2013-04-07 17:22:00,61.0,44.0,29.37,SE,133,4.0,11.0,53,0.00,,,0.00,,2013-04-07 21:22:00,
2013-04-07 17:34:00,61.0,44.0,29.49,ESE,113,4.0,13.0,54,0.00,,,0.00,,2013-04-07 21:34:00,
2013-04-07 17:44:00,61.0,44.0,29.49,ESE,113,4.0,13.0,54,0.00,,,0.00,,2013-04-07 21:44:00,
2013-04-07 17:55:00,61.0,45.0,29.49,ESE,119,1.0,14.0,55,0.00,,,0.00,,2013-04-07 21:55:00,
2013-04-07 18:04:00,62.0,45.0,29.36,SE,142,6.0,10.0,54,0.00,,,0.00,,2013-04-07 22:04:00,
2013-04-07 18:14:00,62.0,45.0,29.36,SE,142,6.0,10.0,54,0.00,,,0.00,,2013-04-07 22:14:00,
2013-04-07 18:23:00,61.0,44.0,29.32,South,174,4.0,9.0,54,0.00,,,0.00,,2013-04-07 22:23:00,
2013-04-07 18:34:00,61.0,44.0,29.55,SE,131,5.0,13.0,54,0.00,,,0.00,,2013-04-07 22:34:00,
2013-04-07 18:43:00,61.0,44.0,29.55,SE,131,5.0,13.0,54,0.00,,,0.00,,2013-04-07 22:43:00,